Regional Weather Roundup
Issued by NWS

Home | Current Version | Previous Version | Text Only | Print | Product List | Glossary On
Versions: 1 2 3 4 5 6 7 8 9 10 11 12 13 14 15 16 17 18 19 20 21 22 23 24 25 26 27 28 29 30 31 32 33 34 35 36 37 38 39 40 41 42 43 44 45 46 47 48 49 50
000
ASUS45 KABQ 210701
RWRNM
NEW MEXICO REGIONAL WEATHER ROUNDUP
NATIONAL WEATHER SERVICE ALBUQUERQUE NM
1200 AM MST SUN JAN 21 2018

NOTE: "FAIR" MEANS FEW OR NO CLOUDS BELOW 12,000 FEET AGL WITH NO
       SIGNIFICANT WEATHER OR OBSTRUCTIONS TO VISION.

      THIS PRODUCT IS RELEASED AS TWO VERSIONS.  ONE VERSION NEAR
      THE TOP OF THE HOUR CONTAINING PRELIMINARY DATA FROM ALBUQUERQUE
      AND OTHER STATIONS.  A FINAL VERSION WITH ADDITIONAL DATA IS
      ISSUED ABOUT 10 MINUTES AFTER THE HOUR.

NMZ501-503-504-510>518-210800-
NORTHWEST PLATEAU/NORTHCENTRAL MOUNTAINS

CITY           SKY/WX    TMP DP  RH WIND       PRES   REMARKS
FARMINGTON     MOCLDY    32  32 100 E7        29.80R WCI  26
LOS ALAMOS     CLOUDY    33  25  70 SW17G26   29.79F WCI  22
SANTA FE       FAIR      37  33  85 SW5       29.77R WCI  33
TAOS           LGT SNOW  33  31  92 SW14      29.80R FOG     WCI  23
ANGEL FIRE     LGT SNOW  35  25  67 SW14G21   29.77R WCI  26

$$
NMZ402-403-502-505>509-210800-
WESTCENTRAL MOUNTAINS/SOUTHWEST MOUNTAINS

CITY           SKY/WX    TMP DP  RH WIND       PRES   REMARKS
GALLUP         LGT SNOW  27  24  89 S13       29.84F FOG     WCI  16
GRANTS         FAIR      30  20  66 SW12G23   29.87F WCI  20
SILVER CITY    FAIR      34  28  77 W24       29.92F WCI  22

$$
NMZ407-409-411-412-210800-
SOUTHERN DESERTS

CITY           SKY/WX    TMP DP  RH WIND       PRES   REMARKS
DEMING         CLOUDY    43  32  65 W20G30    29.91S
LAS CRUCES     MOCLDY    48  34  59 W21G29    29.90S
HOLLOMAN AFB   MOCLDY    49  23  36 SW22      29.85S
ALAMOGORDO     FAIR      55  21  26 S20G26    29.85R
T OR C         MOCLDY    51  30  44 W18G26    29.84R

$$
NMZ519>523-210800-
CENTRAL VALLEYS/CENTRAL HIGHLANDS

CITY           SKY/WX    TMP DP  RH WIND       PRES   REMARKS
ALBUQUERQUE    CLOUDY    36  29  75 W23G36    29.86R WCI  24
MORIARTY ARPT  DRIZZLE   40  33  77 W24G35    29.81R WCI  29
CLINES CORNERS FAIR      41  22  46 SW26G41   29.77S
BELEN          NOT AVBL
SOCORRO        CLOUDY    50  28  42 SW16G25   29.82R

$$
NMZ524>526-539-540-210800-
SOUTHCENTRAL MOUNTAINS

CITY           SKY/WX    TMP DP  RH WIND       PRES   REMARKS
RUIDOSO        NOT AVBL

$$
NMZ527>531-210800-
NORTHEAST HIGHLANDS/NORTHEAST PLAINS

CITY           SKY/WX    TMP DP  RH WIND       PRES   REMARKS
LAS VEGAS      FAIR      38  20  48 S16       29.76F WCI  29
RATON          FAIR      35  14  42 W8        29.71F WCI  29
CLAYTON        FAIR      41  16  36 W10       29.70F

$$
NMZ532>537-210800-
EASTCENTRAL PLAINS

CITY           SKY/WX    TMP DP  RH WIND       PRES   REMARKS
TUCUMCARI      FAIR      50  18  28 SW15      29.71S
CANNON AFB     FAIR      41  17  37 SW10      29.79S
CLOVIS AIRPORT FAIR      39  17  41 SW12      29.78F WCI  32

$$
NMZ028-029-538-210800-
SOUTHEAST PLAINS

CITY           SKY/WX    TMP DP  RH WIND       PRES   REMARKS
ROSWELL        FAIR      48  20  32 S10       29.77F
ARTESIA        FAIR      48  19  32 SW13      29.80S
CARLSBAD       FAIR      41  19  41 NE6       29.79S
HOBBS          FAIR      43  19  39 SW9       29.81F


$$




USA.gov is the U.S. government's official web portal to all federal, state and local government web resources and services.